Location: Mercogliano
(40.9167°N, 14.7333°E)
Time: 08:06:13
(UTC+00:00)

CZ-2C R/B - Pass Details

Date: 25 January 2021
Orbit: 785 x 870 km, 98.2° (Epoch: 08 March)

Event Time Altitude Azimuth Distance (km) Brightness Sun altitude
Exits shadow 17:51:04 18° 30° (NNE) 2,002 4.3 -19.1°
Maximum altitude 17:55:03 48° 99° (E) 1,118 2.9 -19.9°
Drops below altitude 10° 18:00:26 10° 173° (S) 2,508 5.2 -20.9°
Sets 18:02:54 0° 179° (S) 3,440 5.9 -21.3°
